Tracking 31027 objects as of 19-Jul-2025
HD Live streaming from Space Station
objects crossing your sky now

SL-14 R/B

Track SL-14 R/B now!
10-day predictions


NORAD ID: 21233
Int'l Code: 1991-030B
Perigee: 1,193.7 km
Apogee: 1,217.7 km
Inclination: 82.5 °
Period: 109.4 minutes
Semi major axis: 7576 km
RCS: 5.0762 m2 (large)
Launch date: April 24, 1991
Source: Commonwealth of Independent States (former USSR) (CIS)
Launch site: PLESETSK MISSILE AND SPACE COMPLEX (PKMTR)

Note: This is a ROCKET BODY
Your satellite tracking list
STARLINK-3957
Track 1 satellite(s)




NASA's NSSDC Master Catalog

Two Line Element Set (TLE):
1 21233U 91030B   25199.62138641  .00000128  00000-0  30480-3 0  9990
2 21233  82.5451  68.9464 0015883 300.0129  87.6313 13.16381746645064
Source of the keplerian elements: AFSPC